Location: *
(55.5817°S, 142.4781°W)
Time: 07:09:09
(UTC+00:00)

Meteor 1-15 Rocket - Pass Details

Date: 29 April 2025
Orbit: 839 x 906 km, 81.2° (Epoch: 23 May)

Event Time Altitude Azimuth Distance (km) Brightness Sun altitude
Rises 15:11:43 0° 332° (NNW) 3,464 7.2 -14.2°
Reaches altitude 10° 15:14:13 10° 327° (NNW) 2,524 6.4 -13.9°
Maximum altitude 15:19:50 55° 249° (WSW) 1,041 4.3 -13.1°
Drops below altitude 10° 15:25:26 10° 171° (S) 2,513 6.7 -12.3°
Sets 15:27:56 0° 166° (SSE) 3,448 7.5 -12.0°
